[[{"header":{"parameterUnit":"m.s-1","parameterCategory":1,"la1":30.2991,"la2":30.254,"lo1":-89.0895,"lo2":-89.0444,"dy":0.0017,"dx":0.0017,"nx":28,"ny":28,"refTime":"2025-07-08T03:00:00:Z","depth":0,"parameterNumber":2,"parameterNumberName":"U-component_of_WINDS"},"data":[0,0,0,0,0,0,0,0,0,0,0,0,0,0,0,0,0,0,0,0,0,0,0,0,0,0,0,0,0,0,0,0,0,0,0,0,0,0,0,0,0,0,0,0,0,0,0,0,0,0,0,0,0,0,0,0,0,0,1.9668,1.967,0,1.9811,1.9812,1.9814,1.9872,1.9872,1.9872,1.9871,2.002,2.0024,2.0028,0,0,0,0,0,0,0,0,0,0,0,0,0,1.9447,1.9451,1.9668,1.967,1.9671,1.981,1.9812,1.9814,1.9872,1.9872,1.9872,1.9871,2.0018,2.0023,2.0028,0,0,0,0,0,0,0,0,0,0,0,0,0,1.9562,1.9452,1.9668,1.9717,1.9723,1.981,1.9812,1.9815,1.9873,1.9872,1.9872,1.9871,2.0016,2.0023,2.0029,2.0078,0,0,2.0048,2.0051,0,0,0,0,0,0,0,0,1.9555,1.957,1.9708,1.9714,1.9721,1.9823,1.9789,1.9903,1.9873,1.9816,1.9871,1.9871,1.9955,1.9966,1.9994,2.0085,2.0091,2.0049,2.0053,2.0056,2.0057,0,0,0,0,0,0,0,1.9547,1.9564,1.9724,1.971,1.9718,1.9733,1.9749,1.9811,1.9886,1.9821,1.9825,1.9841,1.9958,1.9988,1.9998,2.0093,2.0049,2.0054,2.0058,2.0061,2.0231,2.0231,0,0,0,0,0,0,1.9531,1.9557,1.972,1.9729,1.9635,1.9737,1.9755,1.9791,1.9886,1.99,1.9842,1.9843,1.9977,1.999,2.0003,2.0066,2.0055,2.0061,2.0065,2.023,2.0231,2.0232,0,0,0,0,0,0,1.9526,1.9545,1.9714,1.9644,1.9667,1.9741,1.9781,1.9794,1.9824,1.9901,1.9915,1.9858,1.9977,1.9994,2.0059,2.0072,2.0064,2.007,2.0229,2.023,2.0231,2.0193,0,0,0,0,0,0,1.9519,1.9543,1.9562,1.9644,1.967,1.9766,1.9782,1.9797,1.9834,1.9838,1.992,1.9934,1.9978,2.0049,2.0065,2.0081,2.0075,2.0228,2.023,2.0231,2.0193,2.0192,2.0192,0,0,0,0,0,1.9511,1.9546,1.9562,1.9582,1.9696,1.9767,1.9782,1.9832,1.9835,1.9855,1.9905,1.9931,2.0068,2.0055,2.0073,2.0092,2.0228,2.0229,2.0231,2.0194,2.0193,2.0192,0,0,0,0,0,0,1.9464,1.9558,1.9577,1.9639,1.9694,1.9777,1.9803,1.983,1.9886,1.9887,1.9947,1.9966,2.0025,2.0065,2.0048,2.0144,2.015,2.0155,2.0115,2.0115,2.0114,2.0103,2.008,0,0,0,0,0,1.946,1.951,1.959,1.9637,1.9663,1.9728,1.9761,1.9795,1.9855,1.9879,1.9934,1.9992,2.0048,2.0084,2.014,2.0199,2.0218,2.0221,2.022,2.0219,2.0223,2.0257,2.0259,2.0237,2.0237,2.0237,0,0,1.9454,1.9512,1.9539,1.9629,1.9676,1.9726,1.9748,1.9801,1.9839,1.9888,1.9951,1.9993,2.0062,2.0123,2.0154,2.0159,2.0234,2.0221,2.022,2.0225,2.0259,2.0261,2.0263,2.0238,2.0238,2.0237,0,0,1.9469,1.9517,1.9561,1.9608,1.9678,1.9721,1.9731,1.981,1.9839,1.9904,1.9941,1.9988,2.0084,2.0131,2.0167,2.0198,2.0225,2.0215,2.0212,2.0244,2.0246,2.0248,2.0259,2.0262,2.0219,2.0219,2.0219,0,1.9452,1.9529,1.9581,1.9631,1.9669,1.9715,1.9761,1.9803,1.9889,1.9914,1.9918,2.0039,2.0088,2.0161,2.0169,2.0197,2.0211,2.0206,2.0241,2.0244,2.0246,2.0257,2.0261,2.0217,2.0217,2.0217,2.0218,0,1.9505,1.9558,1.9586,1.9666,1.9707,1.9755,1.9814,1.985,1.9879,1.9922,1.9987,2.0048,2.0116,2.0136,2.0166,2.0214,2.0215,2.0229,2.0237,2.0246,2.0257,2.0262,2.0215,2.0215,2.0216,2.0216,0,0,1.9494,1.9602,1.9611,1.9648,1.9729,1.9771,1.982,1.9887,1.9916,1.9974,2.0017,2.0096,2.011,2.0151,2.0187,2.0215,2.0236,2.0227,2.0229,2.0226,2.0292,2.028,2.0284,2.0254,2.0255,2.0255,2.0286,0,1.9519,1.961,1.9657,1.9727,1.9777,1.9821,1.9864,1.9918,1.9959,2.0007,2.0053,2.0108,2.0122,2.0147,2.0177,2.0227,2.025,2.0225,2.0295,2.0297,2.0276,2.029,2.0278,2.0304,2.0291,2.0292,2.0292,0,1.9561,1.9616,1.9691,1.9766,1.9788,1.9826,1.9891,1.9936,1.9999,2.0027,2.0072,2.0107,2.0161,2.0164,2.024,2.0222,2.0254,2.0282,2.0284,2.0293,2.0295,2.0299,2.0314,2.0317,2.03,2.0299,2.0299,0,1.9544,1.9638,1.9695,1.9725,1.9814,1.9839,1.9878,1.994,1.9976,2.0033,2.0058,2.012,2.0154,2.0202,2.0253,2.025,2.0323,2.0331,2.0348,2.0347,2.0362,2.036,2.0381,2.0382,2.0382,2.0382,2.0381,0,1.9568,1.9611,1.9689,1.9724,1.9774,1.9829,1.9878,1.9919,1.9974,2.0018,2.006,2.0101,2.0165,2.0214,2.0254,2.0311,2.0326,2.035,2.036,2.0347,2.0343,2.0368,2.0367,2.0383,2.0382,2.0382,2.0382,0,1.9558,1.9612,1.9677,1.9755,1.9775,1.9809,1.9876,1.9912,1.9955,2.001,2.0026,2.0093,2.0153,2.0208,2.0288,2.0315,2.0371,2.0385,2.035,2.0356,2.037,2.0367,2.0408,2.0416,2.041,2.041,2.041,0,1.9569,1.9604,1.9686,1.9718,1.9755,1.9806,1.9844,1.9899,1.9936,2.001,2.0036,2.0099,2.0151,2.0244,2.03,2.0361,2.0376,2.0386,2.0386,2.0371,2.0377,2.0374,2.0378,2.0385,2.0385,2.0385,2.0385,0,1.9583,1.9608,1.966,1.9721,1.9764,1.9816,1.9868,1.9892,1.9957,1.9997,2.0058,2.0099,2.0179,2.0241,2.0308,2.0348,2.0377,2.0384,2.0391,2.0378,2.0356,2.0368,2.0347,2.0383,2.0383,2.0383,2.0384,2.0384,1.9584,1.9617,1.9679,1.9736,1.9781,1.9829,1.9866,1.9913,1.9965,2.0034,2.0064,2.0125,2.0187,2.028,2.0319,2.0369,2.0375,2.0386,2.0388,2.039,2.0387,2.0348,2.0381,2.0381,2.0381,2.0381,2.0381,0,1.96,1.9642,1.9694,1.9765,1.981,1.9833,1.9892,1.9928,1.9981,2.0036,2.0087,2.0156,2.0216,2.0276,2.0339,2.0367,2.0382,2.0382,2.038,2.0389,2.0378,2.0365,2.0369,2.0369,2.0369,2.0369,2.0369,2.0369,1.9613,1.967,1.9702,1.9781,1.9823,1.9883,1.9915,1.996,2.0004,2.0079,2.0129,2.0167,2.0225,2.0292,2.0348,2.0364,2.0385,2.0381,2.0401,2.0389,2.039,2.0391,2.0379,2.0385,2.0385,2.0409,2.0409,2.0409]},{"header":{"parameterUnit":"m.s-1","parameterCategory":1,"la1":30.2991,"la2":30.254,"lo1":-89.0895,"lo2":-89.0444,"dy":0.0017,"dx":0.0017,"nx":28,"ny":28,"refTime":"2025-07-08T03:00:00:Z","depth":0,"parameterNumber":3,"parameterNumberName":"V-component_of_WINDS"},"data":[0,0,0,0,0,0,0,0,0,0,0,0,0,0,0,0,0,0,0,0,0,0,0,0,0,0,0,0,0,0,0,0,0,0,0,0,0,0,0,0,0,0,0,0,0,0,0,0,0,0,0,0,0,0,0,0,0,0,4.6462,4.6463,0,4.6486,4.6487,4.6487,4.6479,4.6478,4.6478,4.6477,4.6499,4.65,4.6501,0,0,0,0,0,0,0,0,0,0,0,0,0,4.6405,4.6406,4.6462,4.6463,4.6463,4.6486,4.6487,4.6487,4.6479,4.6478,4.6478,4.6477,4.6499,4.65,4.6501,0,0,0,0,0,0,0,0,0,0,0,0,0,4.6429,4.6406,4.6462,4.6462,4.6462,4.6486,4.6487,4.6487,4.6479,4.6478,4.6477,4.6477,4.6498,4.65,4.6501,4.6526,0,0,4.6506,4.6507,0,0,0,0,0,0,0,0,4.6428,4.6432,4.6461,4.6462,4.6462,4.6479,4.6474,4.65,4.6479,4.6472,4.6477,4.6476,4.6493,4.6495,4.6501,4.6527,4.6528,4.6506,4.6507,4.6508,4.6508,0,0,0,0,0,0,0,4.6426,4.643,4.6472,4.6462,4.6462,4.6459,4.6462,4.6479,4.6486,4.6473,4.6472,4.6476,4.6493,4.6499,4.6501,4.6529,4.6506,4.6508,4.6509,4.6509,4.6575,4.6576,0,0,0,0,0,0,4.6425,4.6429,4.6471,4.6472,4.6443,4.6461,4.6464,4.6474,4.6486,4.6487,4.6476,4.6475,4.6497,4.6499,4.6502,4.6531,4.6508,4.6509,4.651,4.6574,4.6575,4.6576,0,0,0,0,0,0,4.6424,4.6429,4.647,4.6451,4.6456,4.6462,4.6474,4.6475,4.6482,4.6489,4.649,4.6482,4.6496,4.65,4.652,4.6531,4.651,4.6511,4.6573,4.6574,4.6575,4.6589,0,0,0,0,0,0,4.6422,4.6429,4.6439,4.6451,4.6457,4.6489,4.6475,4.6476,4.6485,4.6484,4.6494,4.6495,4.6496,4.6518,4.6522,4.6533,4.6513,4.6572,4.6574,4.6575,4.6588,4.6591,4.6593,0,0,0,0,0,4.642,4.6442,4.644,4.6445,4.6471,4.649,4.6493,4.6494,4.6486,4.6496,4.65,4.6495,4.653,4.652,4.6524,4.6536,4.6571,4.6573,4.6575,4.6587,4.659,4.6593,0,0,0,0,0,0,4.6431,4.6444,4.6441,4.6468,4.6478,4.6488,4.6501,4.6498,4.651,4.6508,4.6508,4.6511,4.6531,4.6536,4.6525,4.656,4.6549,4.6552,4.6556,4.656,4.6563,4.656,4.6514,0,0,0,0,0,4.6436,4.6452,4.6462,4.6484,4.6489,4.6494,4.6503,4.6503,4.6513,4.6517,4.6523,4.6531,4.6544,4.6552,4.6565,4.6589,4.659,4.6599,4.6602,4.6604,4.6606,4.6617,4.6621,4.6582,4.6582,4.6582,0,0,4.6448,4.6457,4.6467,4.6487,4.6494,4.6509,4.6498,4.6515,4.6525,4.6519,4.6538,4.6543,4.6553,4.6574,4.6584,4.6579,4.6617,4.6606,4.6608,4.6609,4.6619,4.6623,4.6626,4.6583,4.6583,4.6583,0,0,4.6476,4.6485,4.6503,4.6511,4.6523,4.6526,4.6531,4.6541,4.6544,4.6564,4.6559,4.6571,4.6594,4.66,4.6606,4.6635,4.663,4.6639,4.6653,4.6664,4.6667,4.6669,4.6678,4.6681,4.6641,4.6641,4.6641,0,4.6488,4.6511,4.6513,4.653,4.6538,4.6534,4.6551,4.6559,4.6573,4.6578,4.6572,4.6599,4.6606,4.6628,4.6635,4.6641,4.6644,4.6637,4.6666,4.6669,4.6672,4.668,4.6683,4.6642,4.6642,4.6642,4.6642,0,4.6524,4.654,4.6554,4.6569,4.6578,4.6596,4.6599,4.6608,4.6607,4.661,4.6629,4.6636,4.6649,4.6655,4.6654,4.6676,4.6672,4.6667,4.6655,4.6676,4.6684,4.6687,4.6643,4.6643,4.6643,4.6643,0,0,4.656,4.6575,4.658,4.6586,4.6598,4.661,4.6626,4.6639,4.6646,4.6656,4.6668,4.6687,4.6681,4.6688,4.6688,4.6697,4.6717,4.669,4.669,4.6694,4.6741,4.6744,4.6748,4.6715,4.6715,4.6716,4.6739,0,4.6587,4.6617,4.6618,4.6644,4.6657,4.6653,4.6667,4.6675,4.6678,4.6689,4.6692,4.6704,4.6697,4.6701,4.671,4.6713,4.6727,4.6712,4.6724,4.6725,4.6721,4.6752,4.6756,4.6778,4.6743,4.6743,4.6744,0,4.6624,4.6635,4.6662,4.6671,4.6677,4.6689,4.67,4.6712,4.672,4.6721,4.6729,4.6727,4.6741,4.673,4.6749,4.6739,4.6744,4.6746,4.6747,4.6747,4.6735,4.6752,4.6786,4.6788,4.6749,4.6748,4.6748,0,4.6644,4.6667,4.6685,4.6691,4.6702,4.671,4.6715,4.6723,4.673,4.674,4.6744,4.6755,4.6761,4.6769,4.6769,4.6761,4.6788,4.6777,4.6788,4.6788,4.6793,4.6792,4.6826,4.6798,4.6798,4.6798,4.6798,0,4.6674,4.669,4.6694,4.6706,4.6723,4.6724,4.6741,4.6745,4.6752,4.6763,4.676,4.677,4.6771,4.678,4.6781,4.6796,4.6798,4.6799,4.6798,4.6798,4.6798,4.6801,4.6799,4.6799,4.6799,4.6799,4.6799,0,4.67,4.6704,4.6723,4.6732,4.6735,4.6747,4.6754,4.6764,4.6767,4.678,4.6784,4.6787,4.6799,4.68,4.6813,4.6813,4.6831,4.6829,4.6828,4.6827,4.6837,4.6836,4.6874,4.6878,4.6848,4.6849,4.6849,0,4.6718,4.6731,4.6741,4.6748,4.6753,4.6766,4.6773,4.6774,4.6781,4.6791,4.68,4.6811,4.682,4.6838,4.6841,4.6851,4.6849,4.6861,4.685,4.6849,4.6847,4.6846,4.6846,4.6863,4.6863,4.6863,4.6864,0,4.6749,4.675,4.6761,4.6773,4.6782,4.6791,4.6799,4.6805,4.6807,4.6815,4.6827,4.6834,4.6847,4.6858,4.6867,4.6871,4.6867,4.6867,4.687,4.687,4.6868,4.6867,4.6832,4.6866,4.6866,4.6866,4.6866,4.6865,4.6771,4.6781,4.6789,4.6801,4.6808,4.6815,4.6825,4.6828,4.6839,4.685,4.685,4.6862,4.6869,4.6881,4.6885,4.6894,4.689,4.6895,4.6895,4.6896,4.6896,4.6867,4.6896,4.6896,4.6896,4.6896,4.6896,0,4.68,4.6805,4.6817,4.6828,4.6837,4.6834,4.6843,4.685,4.6861,4.6868,4.6877,4.689,4.69,4.6904,4.6913,4.6919,4.6918,4.6922,4.6921,4.6921,4.6901,4.6897,4.6923,4.6923,4.6923,4.6923,4.6923,4.6923,4.6817,4.6833,4.6835,4.6854,4.6859,4.6871,4.6876,4.6883,4.6888,4.6903,4.6911,4.6914,4.6919,4.6929,4.6937,4.6938,4.6941,4.6945,4.6945,4.6926,4.6923,4.692,4.6916,4.6946,4.6946,4.6965,4.6965,4.6965]}]]